Location: Unspecified
(42.3650°N, 71.1030°W)
Time: 06:53:36
(UTC+00:00)

Vanguard 2 - Pass Details

Date: 04 July 2024
Orbit: 552 x 2913 km, 32.9° (Epoch: 13 July)

Event Time Altitude Azimuth Distance (km) Brightness Sun altitude
Exits shadow 06:21:12 28° 177° (S) 2,541 9.6 -21.4°
Maximum altitude 06:24:00 33° 148° (SSE) 2,586 9.9 -21.2°
Drops below altitude 10° 06:34:54 10° 92° (E) 4,898 11.9 -20.4°
Sets 06:40:00 0° 85° (E) 6,243 12.6 -20.0°
